Weather History for Wooster, OH

Change the Weather History Date:

Monday, January 21, 2013

  Actual Average Record
Temperature  
Mean Temperature 14 °F -  
Max Temperature 19 °F 28 °F 52 °F (2006)
Min Temperature 7 °F 14 °F -5 °F (2004)
Degree Days  
Heating Degree Days 52    
Moisture  
Dew Point 8 °F    
Average Humidity 73    
Maximum Humidity 92    
Minimum Humidity 62    
Precipitation  
Precipitation 0.00 in - - ()
Sea Level Pressure  
Sea Level Pressure 30.02 in    
Wind  
Wind Speed 13 mph (West)    
Max Wind Speed 26 mph    
Max Gust Speed 34 mph    
Visibility 6 miles    
Events Fog , Snow    
Averages and records for this station are not official NWS values.
T = Trace of Precipitation, MM = Missing Value Source: NWS Daily Summary

Daily Weather History Graph

Daily Weather History Graph

Search for Another Location

Airport:

Trip Planner

Search our weather history database for the weather conditions in past years. The results will help you decide how hot, cold, wet, or windy it might be!

Date:

Astronomy

Jan. 21, 2013 Rise Set
Actual Time 7:46 AM EST 5:31 PM EST
Civil Twilight 7:16 AM EST 6:01 PM EST
Nautical Twilight 6:43 AM EST 6:35 PM EST
Astronomical Twilight 6:10 AM EST 7:07 PM EST
Moon 1:10 PM EST (1/21) 3:13 AM EST (1/21)
Length of Visible Light 10h 44m
Length of Day
9h 45m
Waxing Gibbous, 75% of the Moon is Illuminated
Jan 21
Waxing Gibbous
Jan 26
Full
Feb 3
Last Quarter
Feb 10
New
Feb 17
First Quarter

Hourly Weather History & Observations

Time (EST) Temp. Windchill Dew Point Humidity Pressure Visibility Wind Dir Wind Speed Gust Speed Precip Events Conditions
12:03 AM 19.4 °F 8.6 °F 12.2 °F 74% 30.12 in 10.0 mi NW 9.2 mph - N/A   Overcast
12:56 AM 19.0 °F 10.0 °F 10.9 °F 71% 30.15 in 10.0 mi WNW 6.9 mph - N/A   Overcast
1:06 AM 19.4 °F 9.5 °F 10.4 °F 68% 30.10 in 10.0 mi West 8.1 mph - N/A   Overcast
1:56 AM 19.0 °F 9.0 °F 9.0 °F 65% 30.14 in 10.0 mi WNW 8.1 mph - N/A   Mostly Cloudy
2:56 AM 19.0 °F 8.2 °F 10.0 °F 68% 30.14 in 10.0 mi West 9.2 mph - N/A   Overcast
4:56 AM 18.0 °F 7.7 °F 10.0 °F 71% 30.09 in 10.0 mi WNW 8.1 mph - N/A   Overcast
5:56 AM 18.0 °F 8.7 °F 9.0 °F 68% 30.09 in 10.0 mi West 6.9 mph - N/A   Overcast
7:56 AM 18.0 °F 9.8 °F 10.0 °F 71% 30.06 in 10.0 mi West 5.8 mph - N/A   Overcast
8:56 AM 19.0 °F 9.0 °F 10.9 °F 71% 30.06 in 8.0 mi WSW 8.1 mph - N/A   Overcast
9:56 AM 19.0 °F 10.0 °F 10.9 °F 71% 30.05 in 6.0 mi WSW 6.9 mph - N/A   Haze
10:56 AM 19.9 °F 9.3 °F 12.0 °F 71% 30.03 in 7.0 mi WSW 9.2 mph - 0.00 in   Overcast
11:24 AM 19.4 °F 7.9 °F 12.2 °F 74% 29.97 in 5.0 mi West 10.4 mph - 0.00 in Snow Light Snow
11:56 AM 19.9 °F 6.2 °F 12.9 °F 74% 30.00 in 4.0 mi West 15.0 mph 21.9 mph 0.00 in   Haze
11:58 AM 19.4 °F 3.6 °F 12.2 °F 74% 29.95 in 1.5 mi WNW 19.6 mph 23.0 mph 0.00 in Snow Light Snow
12:00 PM 19.4 °F 4.5 °F 12.2 °F 74% 29.95 in 0.8 mi WNW 17.3 mph 23.0 mph 0.00 in Snow Light Snow
12:11 PM 17.6 °F 2.2 °F 12.2 °F 79% 29.95 in 0.2 mi WNW 17.3 mph 24.2 mph 0.00 in Snow Heavy Snow
12:17 PM 19.4 °F 5.0 °F 12.2 °F 74% 29.95 in 1.2 mi West 16.1 mph - 0.00 in Snow Light Snow
12:25 PM 19.4 °F 5.5 °F 12.2 °F 74% 29.94 in 9.0 mi West 15.0 mph - 0.00 in   Mostly Cloudy
12:41 PM 19.4 °F 5.5 °F 10.4 °F 68% 29.93 in 10.0 mi West 15.0 mph - 0.00 in   Scattered Clouds
12:56 PM 19.0 °F 4.0 °F 10.9 °F 71% 29.99 in 7.0 mi West 17.3 mph - 0.00 in Snow Light Snow
1:18 PM 19.4 °F 5.0 °F 10.4 °F 68% 29.93 in 5.0 mi West 16.1 mph - 0.00 in Snow Light Snow
1:32 PM 19.4 °F 4.5 °F 12.2 °F 74% 29.94 in 1.8 mi West 17.3 mph 26.5 mph 0.00 in Snow Light Snow
1:42 PM 19.4 °F 5.0 °F 12.2 °F 74% 29.93 in 4.0 mi West 16.1 mph - 0.00 in Snow Light Snow
1:56 PM 19.9 °F 3.9 °F 10.0 °F 65% 29.99 in 10.0 mi West 20.7 mph 28.8 mph 0.00 in   Overcast
2:05 PM 19.4 °F 4.1 °F 10.4 °F 68% 29.94 in 10.0 mi West 18.4 mph 28.8 mph N/A   Overcast
2:47 PM 17.6 °F -1.0 °F 8.6 °F 68% 29.95 in 1.0 mi West 26.5 mph 34.5 mph 0.00 in Snow Light Snow
2:51 PM 15.8 °F -1.9 °F 10.4 °F 79% 29.95 in 0.2 mi West 21.9 mph 34.5 mph 0.00 in Snow Heavy Snow
3:03 PM 17.6 °F 2.2 °F 8.6 °F 68% 29.95 in 1.2 mi West 17.3 mph 33.4 mph 0.00 in Snow Light Snow
3:07 PM 17.6 °F 3.7 °F 8.6 °F 68% 29.95 in 3.0 mi West 13.8 mph 25.3 mph 0.00 in Snow Light Snow
3:20 PM 17.6 °F 2.2 °F 8.6 °F 68% 29.96 in 10.0 mi West 17.3 mph 24.2 mph 0.00 in   Mostly Cloudy
3:30 PM 15.8 °F -1.5 °F 8.6 °F 73% 29.96 in 2.0 mi West 20.7 mph 28.8 mph 0.00 in Snow Light Snow
3:37 PM 15.8 °F -0.2 °F 8.6 °F 73% 29.96 in 1.5 mi West 17.3 mph 28.8 mph 0.00 in Snow Light Snow
3:41 PM 17.6 °F 2.2 °F 8.6 °F 68% 29.96 in 3.0 mi West 17.3 mph - 0.00 in Snow Light Snow
3:56 PM 17.1 °F 0.6 °F 10.9 °F 77% 30.03 in 1.8 mi WNW 19.6 mph 25.3 mph 0.00 in Snow Light Snow
4:07 PM 15.8 °F -1.1 °F 10.4 °F 79% 29.98 in 2.0 mi West 19.6 mph 27.6 mph 0.00 in Snow Light Snow
4:23 PM 15.8 °F -0.6 °F 6.8 °F 68% 29.98 in 4.0 mi West 18.4 mph 26.5 mph 0.00 in Snow Light Snow
4:46 PM 15.8 °F -0.2 °F 5.0 °F 62% 29.99 in 9.0 mi West 17.3 mph 26.5 mph 0.00 in   Overcast
4:56 PM 15.1 °F -0.1 °F 6.1 °F 68% 30.06 in 6.0 mi WNW 15.0 mph - 0.00 in Snow Light Snow
5:05 PM 15.8 °F 0.9 °F 6.8 °F 68% 30.00 in 9.0 mi West 15.0 mph 26.5 mph 0.00 in   Mostly Cloudy
5:56 PM 12.9 °F -0.2 °F 3.9 °F 67% 30.08 in 10.0 mi West 10.4 mph - 0.00 in   Mostly Cloudy
6:35 PM 12.2 °F -2.5 °F 6.8 °F 79% 30.02 in 2.5 mi West 12.7 mph - 0.00 in Snow Light Snow
6:45 PM 12.2 °F -1.0 °F 6.8 °F 79% 30.02 in 9.0 mi West 10.4 mph - 0.00 in   Mostly Cloudy
6:56 PM 12.0 °F -0.4 °F 6.1 °F 77% 30.09 in 10.0 mi West 9.2 mph - 0.00 in   Mostly Cloudy
7:56 PM 12.9 °F -4.4 °F 5.0 °F 71% 30.09 in 3.0 mi West 18.4 mph 23.0 mph 0.00 in Snow Light Snow
8:03 PM 12.2 °F -4.8 °F 6.8 °F 79% 30.03 in 1.8 mi West 17.3 mph - 0.00 in Snow Light Snow
8:07 PM 12.2 °F -4.3 °F 6.8 °F 79% 30.03 in 0.8 mi WNW 16.1 mph - 0.00 in Snow Light Snow
8:18 PM 12.2 °F -4.3 °F 8.6 °F 85% 30.04 in 0.8 mi West 16.1 mph - 0.00 in Snow Light Snow
8:32 PM 10.4 °F -6.0 °F 8.6 °F 92% 30.04 in 0.2 mi WNW 15.0 mph 25.3 mph 0.00 in Fog , Snow Snow
8:54 PM 10.4 °F -6.6 °F 6.8 °F 85% 30.04 in 1.2 mi West 16.1 mph 24.2 mph 0.00 in Snow Light Snow
8:56 PM 10.9 °F -7.0 °F 6.1 °F 81% 30.11 in 1.8 mi West 18.4 mph 24.2 mph 0.00 in Snow Light Snow
8:59 PM 10.4 °F -7.2 °F 5.0 °F 79% 30.04 in 3.0 mi West 17.3 mph 23.0 mph 0.00 in Snow Light Snow
9:03 PM 10.4 °F -6.6 °F 3.2 °F 73% 30.04 in 8.0 mi West 16.1 mph - 0.00 in   Mostly Cloudy
9:12 PM 10.4 °F -7.2 °F 3.2 °F 73% 30.05 in 10.0 mi West 17.3 mph - 0.00 in   Scattered Clouds
9:21 PM 10.4 °F -9.1 °F 5.0 °F 79% 30.05 in 1.8 mi WNW 21.9 mph 29.9 mph 0.00 in Snow Light Snow
9:38 PM 10.4 °F -5.4 °F 6.8 °F 85% 30.06 in 2.5 mi WNW 13.8 mph - 0.00 in Snow Light Snow
9:56 PM 10.0 °F -7.6 °F 3.9 °F 76% 30.12 in 3.0 mi WNW 17.3 mph - 0.00 in Snow Light Snow
10:49 PM 8.6 °F -7.0 °F 1.4 °F 73% 30.07 in 9.0 mi West 12.7 mph - 0.00 in   Scattered Clouds
10:56 PM 8.1 °F -7.7 °F 1.9 °F 76% 30.14 in 10.0 mi West 12.7 mph - 0.00 in   Partly Cloudy
11:56 PM 7.0 °F -8.3 °F -0.9 °F 70% 30.15 in 10.0 mi West 11.5 mph - N/A   Scattered Clouds